Tracking 19490 objects as of 24-Jan-2019
HD Live streaming from Space Station
objects crossing your sky now

FENGYUN 1C DEB

Track FENGYUN 1C DEB now!
10-day predictions


NORAD ID: 30348
Int'l Code: 1999-025ABK
Perigee: 827.4 km
Apogee: 859.0 km
Inclination: 99.0 °
Period: 101.6 minutes
Semi major axis: 7214 km
RCS: 0.044 m2 (small)
Launch date: May 10, 1999
Source: People's Republic of China (PRC)
Launch site: Taiyaun Space Center, China (TSC)

Note: This is SATELLITE DEBRIS
aabbcc
Your satellite tracking list
Your tracking list is empty




NASA's NSSDC Master Catalog

Two Line Element Set (TLE):
1 30348U 99025ABK 19023.37476587  .00000651  00000-0  34673-3 0  9993
2 30348  98.9923  59.0850 0021870  41.2495  79.7971 14.16838634618021
Source of the keplerian elements: AFSPC